Flag for U.S.A. Weather past 2 weeks in Arlington, Texas, U.S.A.

Now
38 °F

Low clouds.


Feels Like: 30 °F
Forecast: 31 / 41 °F
Wind: 13 mph from North

Location: Arlington Municipal Airport

Current Time: Mar 1, 2015 at 3:25:11 PM

Latest Report: Mar 1, 2015 at 2:53 PM


Visibility: 9 mi

Pressure: 30.31 "Hg

Humidity: 83%

Dew point: 33 °F

Location of ArlingtonLocation

Historic Weather in Arlington — Graph

°F

Arlington temperature yesterday

Maximum temperature yesterday: 33 °F (at 5:00 PM)
Minimum temperature yesterday: 28 °F (at 12:53 AM)
Average temperature yesterday: 30 °F

Past Weeks' High & Low Weather Summary

 TemperatureHumidityPressure
High79 °F (Feb 14, 2:53 PM)92% (Feb 18, 4:53 AM)30.57 "Hg (Feb 18, 4:53 AM)
Low26 °F (Feb 27, 9:56 AM)18% (Feb 14, 4:53 PM)29.65 "Hg (Feb 21, 3:53 AM)
Average43 °F67%30.18 "Hg
* Reported Feb 14 12:53 PM — Mar 1 12:53 PM, Arlington, Weather by CustomWeather, © 2015

Note: Actual official high and low records may vary slightly from our data, if they occured in-between our weather recording intervals... More about our weather records

Advertising

Arlington weather history for previous 24 hours

 ConditionsComfort  
Time TempWeatherWind HumidityBarometerVisibility
12:53 PM
Sun, Mar 1
37 °FLight rain. Fog.10 mph86%30.34 "Hg2 mi
11:53 AM37 °FLow clouds.10 mph82%30.36 "Hg2 mi
10:53 AM36 °FLight rain. Fog.9 mph85%30.36 "Hg2 mi
9:53 AM35 °FLight rain. Fog.7 mph85%30.37 "Hg2 mi
8:53 AM34 °FFog.8 mph88%30.36 "Hg2 mi
7:53 AM34 °FLight rain. Fog.8 mph85%30.34 "Hg2 mi
6:53 AM34 °FLight rain. Fog.8 mph85%30.32 "Hg2 mi
6:04 AM34 °FLight rain. Fog.7 mph85%30.31 "Hg2 mi
5:53 AM34 °FFog.7 mph85%30.32 "Hg3 mi
4:53 AM34 °FLight freezing rain. Fog.9 mph85%30.30 "Hg3 mi
3:53 AM34 °FLight rain. Fog.5 mph85%30.29 "Hg3 mi
2:53 AM33 °FFog.5 mph88%30.30 "Hg3 mi
1:53 AM33 °FFog.5 mph88%30.31 "Hg4 mi
12:53 AM33 °FFog.3 mph85%30.32 "Hg4 mi
11:53 PM
Sat, Feb 28
33 °FFog.6 mph85%30.34 "Hg5 mi
10:53 PM33 °FFog.7 mph85%30.35 "Hg5 mi
9:53 PM33 °FFog.8 mph85%30.35 "Hg6 mi
8:53 PM33 °FLight freezing rain. Fog.5 mph85%30.34 "Hg4 mi
7:53 PM33 °FLow clouds.8 mph82%30.33 "Hg6 mi
6:53 PM32 °FIce fog.6 mph85%30.32 "Hg3 mi
5:53 PM32 °FIce fog.6 mph85%30.32 "Hg3 mi
5:00 PM33 °FMostly cloudy.6 mph82%30.30 "Hg6 mi
3:53 PM32 °FLow clouds.6 mph82%30.32 "Hg6 mi
Weather by CustomWeather, © 2015

See weather overviewHow to use our weather pages